Topeka Forbes, KS

6:58 AM CST on January 24, 2018 (GMT -0600)
Forbes

Weather History for KFOE - February, 2013

Change the Weather History Date:

Tuesday, February 19, 2013

  Actual Average Record
Temperature  
Mean Temperature 28 °F -  
Max Temperature 36 °F 47 °F 86 °F (1997)
Min Temperature 19 °F 24 °F -11 °F (1978)
Degree Days  
Heating Degree Days 38    
Moisture  
Dew Point 8 °F    
Average Humidity 51    
Maximum Humidity 78    
Minimum Humidity 21    
Precipitation  
Precipitation 0.00 in - - ()
Sea Level Pressure  
Sea Level Pressure 30.29 in    
Wind  
Wind Speed 10 mph (NNW)    
Max Wind Speed 23 mph    
Max Gust Speed 32 mph    
Visibility 10 miles    
Events      
Averages and records for this station are not official NWS values.
T = Trace of Precipitation, MM = Missing Value Source: NWS Daily Summary

Daily Weather History Graph

Daily Weather History Graph

Search for Another Location

Airport or City:

Trip Planner

Search our weather history database for the weather conditions in past years. The results will help you decide how hot, cold, wet, or windy it might be!

Date:

Astronomy

Feb. 19, 2013 Rise Set
Actual Time 7:08 AM CST 6:04 PM CST
Civil Twilight 6:41 AM CST 6:32 PM CST
Nautical Twilight 6:10 AM CST 7:03 PM CST
Astronomical Twilight 5:39 AM CST 7:34 PM CST
Moon 12:38 PM CST (2/19) 2:39 AM CST (2/19)
Length of Visible Light 11h 50m
Length of Day
10h 56m
Waxing Gibbous, 67% of the Moon is Illuminated
Feb 19
Waxing Gibbous
Feb 25
Full
Mar 4
Last Quarter
Mar 11
New
Mar 19
First Quarter

Hourly Weather History & Observations

Time (CST) Temp. Windchill Dew Point Humidity Pressure Visibility Wind Dir Wind Speed Gust Speed Precip Events Conditions
12:53 AM 23.0 °F 13.9 °F 15.1 °F 72% 30.14 in 10.0 mi WNW 8.1 mph - N/A   Clear
1:53 AM 21.9 °F 11.0 °F 16.0 °F 78% 30.15 in 10.0 mi SW 10.4 mph - N/A   Clear
2:53 AM 21.0 °F 12.4 °F 14.0 °F 74% 30.17 in 10.0 mi NNW 6.9 mph - N/A   Clear
3:53 AM 24.1 °F 14.4 °F 16.0 °F 71% 30.18 in 10.0 mi NW 9.2 mph - N/A   Clear
4:53 AM 24.1 °F 12.5 °F 16.0 °F 71% 30.21 in 10.0 mi WNW 12.7 mph - N/A   Clear
5:53 AM 25.0 °F 13.1 °F 16.0 °F 69% 30.22 in 10.0 mi WNW 13.8 mph 20.7 mph N/A   Clear
6:53 AM 23.0 °F 11.1 °F 16.0 °F 74% 30.25 in 10.0 mi NNW 12.7 mph - N/A   Clear
7:53 AM 24.1 °F 11.0 °F 16.0 °F 71% 30.28 in 10.0 mi NW 16.1 mph - N/A   Clear
8:53 AM 25.0 °F 9.9 °F 12.9 °F 60% 30.32 in 10.0 mi NW 23.0 mph 32.2 mph N/A   Clear
9:53 AM 26.1 °F 12.0 °F 9.0 °F 49% 30.35 in 10.0 mi NW 20.7 mph 26.5 mph N/A   Clear
10:53 AM 28.9 °F 18.6 °F 9.0 °F 43% 30.36 in 10.0 mi NW 12.7 mph 24.2 mph N/A   Clear
12:53 PM 34.0 °F 25.0 °F 3.9 °F 28% 30.36 in 10.0 mi NW 12.7 mph 20.7 mph N/A   Clear
1:53 PM 35.1 °F 25.2 °F 1.0 °F 24% 30.33 in 10.0 mi NNW 16.1 mph 24.2 mph N/A   Clear
2:53 PM 36.0 °F 28.5 °F 3.0 °F 25% 30.32 in 10.0 mi North 10.4 mph - N/A   Clear
3:53 PM 36.0 °F 27.1 °F -0.9 °F 21% 30.32 in 10.0 mi NNW 13.8 mph 18.4 mph N/A   Clear
4:53 PM 35.1 °F 26.9 °F -0.9 °F 22% 30.31 in 10.0 mi NNW 11.5 mph - N/A   Clear
6:53 PM 24.1 °F - -0.0 °F 35% 30.32 in 10.0 mi Calm Calm - N/A   Clear
7:53 PM 27.0 °F 21.6 °F 1.0 °F 33% 30.33 in 10.0 mi NNE 4.6 mph - N/A   Clear
8:53 PM 24.1 °F 17.0 °F 3.9 °F 42% 30.35 in 10.0 mi NNE 5.8 mph - N/A   Clear
9:53 PM 23.0 °F 18.4 °F 3.9 °F 44% 30.35 in 10.0 mi NNE 3.5 mph - N/A   Clear
10:53 PM 19.9 °F - 6.1 °F 55% 30.38 in 10.0 mi Calm Calm - N/A   Clear
11:53 PM 19.9 °F 14.9 °F 5.0 °F 52% 30.39 in 10.0 mi NNW 3.5 mph - N/A   Clear